GW7261 Weather Reports


time (UTC)temp
C
wind
direction
speed
KPH
gust
KPH
rain 1hr
cm
rain 24hr
cm
rain mn
cm
humidity
%
barometer
mb
20260504034305 15 225 3.2 8.0 0.00 0.00 0.00 62 1005.2
20260504033705 15 225 8.0 12.9 0.00 0.00 0.00 61 1005.3
20260504033105 15 225 6.4 14.5 0.00 0.00 0.00 62 1005.3
20260504032504 15 180 4.8 9.7 0.00 0.00 0.00 62 1005.5
20260504031905 15 225 4.8 11.3 0.00 0.00 0.00 62 1005.5
20260504031304 15 225 4.8 8.0 0.00 0.00 0.00 61 1005.6
20260504030104 15 225 8.0 11.3 0.00 0.00 0.00 60 1005.6
20260504025504 15 225 6.4 8.0 0.00 0.00 0.00 60 1005.6
20260504024904 15 225 3.2 6.4 0.00 0.00 0.00 59 1005.7
20260504024304 15 225 6.4 9.7 0.00 0.00 0.00 59 1005.6
20260504023703 15 225 3.2 4.8 0.00 0.00 0.00 59 1005.6
20260504022503 16 225 6.4 11.3 0.00 0.00 0.00 57 1005.5
20260504021903 16 225 9.7 22.5 0.00 0.00 0.00 57 1005.4
20260504021302 16 225 6.4 12.9 0.00 0.00 0.00 57 1005.5
20260504020703 16 225 6.4 11.3 0.00 0.00 0.00 56 1005.4
20260504015502 16 225 11.3 25.7 0.00 0.00 0.00 56 1005.3
20260504014902 16 225 6.4 11.3 0.00 0.00 0.00 54 1005.1
20260504014302 16 225 6.4 9.7 0.00 0.00 0.00 54 1005.1
20260504013101 17 225 8.0 14.5 0.00 0.00 0.00 54 1005.0
20260504012501 17 225 6.4 12.9 0.00 0.00 0.00 53 1004.9
20260504010701 17 225 24.1 43.5 0.00 0.00 0.00 51 1004.8
20260504010101 17 225 16.1 30.6 0.00 0.00 0.00 51 1004.8
20260504005501 18 180 14.5 27.4 0.00 0.00 0.00 50 1004.7
20260504003700 18 225 8.0 14.5 0.00 0.00 0.00 50 1004.8
20260504003100 18 225 14.5 27.4 0.00 0.00 0.00 49 1004.8
20260504002500 18 225 9.7 19.3 0.00 0.00 0.00 48 1004.9
20260504000659 19 225 22.5 40.2 0.00 0.00 0.00 46 1004.8
20260504000059 20 225 17.7 24.1 0.00 0.00 0.00 46 1004.8
20260503234859 20 225 19.3 29.0 0.00 0.00 0.00 45 1004.9
20260503234259 20 225 17.7 38.6 0.00 0.00 0.00 44 1004.8
20260503233659 20 225 16.1 24.1 0.00 0.00 0.00 43 1004.8
20260503233058 20 225 12.9 17.7 0.00 0.00 0.00 45 1004.8
20260503232458 20 225 14.5 25.7 0.00 0.00 0.00 43 1004.8
20260503231858 20 270 12.9 17.7 0.00 0.00 0.00 42 1004.8
20260503231258 21 225 33.8 49.9 0.00 0.00 0.00 42 1004.8
20260503230658 21 225 17.7 24.1 0.00 0.00 0.00 42 1004.8
20260503230057 21 270 19.3 32.2 0.00 0.00 0.00 42 1004.7
20260503225457 21 225 24.1 33.8 0.00 0.00 0.00 41 1005.1
20260503224857 21 225 29.0 59.5 0.00 0.00 0.00 40 1005.1
20260503223657 19 225 27.4 45.1 0.00 0.00 0.00 44 1005.2
20260503223057 19 225 17.7 33.8 0.00 0.00 0.00 43 1005.3
20260503221856 21 225 16.1 30.6 0.00 0.00 0.00 40 1005.3
20260503221256 22 180 9.7 19.3 0.00 0.00 0.00 38 1005.2
20260503220656 21 225 11.3 20.9 0.00 0.00 0.00 39 1005.4
20260503220056 21 225 14.5 22.5 0.00 0.00 0.00 39 1005.4
20260503215456 20 270 16.1 29.0 0.00 0.00 0.00 40 1005.6
20260503214856 20 225 9.7 14.5 0.00 0.00 0.00 40 1005.7
20260503214255 20 180 14.5 22.5 0.00 0.00 0.00 41 1005.7
20260503213655 20 225 16.1 25.7 0.00 0.00 0.00 41 1005.8
20260503213055 20 225 12.9 22.5 0.00 0.00 0.00 41 1005.8
20260503212455 20 225 17.7 25.7 0.00 0.00 0.00 41 1006.0
20260503211855 20 225 12.9 20.9 0.00 0.00 0.00 42 1006.2
20260503211256 19 225 19.3 27.4 0.00 0.30 0.13 44 1006.4
20260503204855 18 225 40.2 61.2 0.03 0.30 0.13 41 1006.7
20260503203655 18 225 20.9 29.0 0.03 0.30 0.13 43 1007.1
20260503203054 18 225 19.3 27.4 0.03 0.30 0.13 42 1007.2
20260503202454 18 225 17.7 25.7 0.03 0.30 0.13 41 1007.6
20260503201854 17 225 25.7 40.2 0.03 0.30 0.13 43 1007.4
20260503201254 17 225 20.9 43.5 0.03 0.30 0.13 42 1007.5
20260503200654 17 225 20.9 45.1 0.03 0.30 0.13 43 1007.7
20260503200054 17 180 27.4 61.2 0.03 0.30 0.13 43 1007.6
20260503195454 17 225 38.6 54.7 0.03 0.30 0.13 43 1007.8
20260503194853 18 225 16.1 24.1 0.00 0.28 0.10 43 1007.6
20260503194253 18 180 12.9 19.3 0.00 0.28 0.10 45 1007.7
20260503193653 17 225 19.3 25.7 0.00 0.28 0.10 45 1007.8
20260503192453 17 225 16.1 22.5 0.00 0.28 0.10 47 1007.9
20260503191852 17 225 14.5 22.5 0.00 0.28 0.10 51 1007.9
20260503191252 16 225 17.7 27.4 0.00 0.28 0.10 52 1008.2
20260503190653 16 225 19.3 33.8 0.00 0.28 0.10 53 1008.2
20260503190052 16 225 22.5 33.8 0.00 0.28 0.10 53 1008.3
20260503185452 16 225 17.7 27.4 0.00 0.28 0.10 54 1008.6
20260503184852 15 225 17.7 32.2 0.00 0.28 0.10 54 1009.0
20260503184252 15 225 16.1 30.6 0.00 0.28 0.10 55 1008.9
20260503183052 15 225 12.9 22.5 0.00 0.28 0.10 57 1009.1
20260503182451 14 225 14.5 24.1 0.00 0.28 0.10 64 1009.0
20260503181851 13 225 17.7 35.4 0.00 0.28 0.10 63 1009.2
20260503181251 13 180 16.1 30.6 0.00 0.28 0.10 64 1009.5
20260503180050 13 225 8.0 14.5 0.00 0.28 0.10 65 1009.7
20260503175450 12 180 9.7 14.5 0.00 0.28 0.10 66 1009.9
20260503174850 12 225 19.3 29.0 0.00 0.28 0.10 70 1010.1
20260503174250 11 225 19.3 32.2 0.00 0.28 0.10 73 1010.5
20260503173650 11 225 22.5 32.2 0.00 0.28 0.10 74 1010.8
20260503173050 11 180 12.9 24.1 0.00 0.28 0.10 78 1011.0
20260503172449 10 225 20.9 38.6 0.00 0.28 0.10 81 1011.1
20260503170649 10 180 9.7 14.5 0.03 0.28 0.10 79 1011.8
20260503131243 9 225 19.3 27.4 0.00 0.23 0.08 61 1013.5
20260503110640 7 225 24.1 37.0 0.00 0.23 0.08 66 1013.6
20260503081235 6 270 14.5 25.7 0.00 0.23 0.08 62 1014.1
20260503080635 6 225 12.9 22.5 0.00 0.23 0.08 62 1014.1
20260503072433 6 180 9.7 16.1 0.00 0.23 0.08 60 1014.2
20260503071833 6 270 9.7 12.9 0.00 0.23 0.08 61 1014.2
20260503071233 6 225 9.7 17.7 0.00 0.23 0.08 61 1014.2
20260503070633 6 270 12.9 17.7 0.00 0.23 0.08 60 1014.3
20260503054831 6 225 8.0 12.9 0.00 0.23 0.08 62 1014.9
20260503054231 6 225 6.4 14.5 0.00 0.23 0.08 61 1014.9
20260503053631 6 225 4.8 6.4 0.00 0.23 0.08 63 1015.0
20260503052430 6 225 4.8 8.0 0.00 0.23 0.08 61 1015.1
20260503051830 6 225 3.2 4.8 0.00 0.23 0.08 63 1015.2
20260503051230 6 225 3.2 6.4 0.00 0.23 0.08 63 1015.1
20260503050630 6 225 3.2 4.8 0.00 0.23 0.08 64 1015.2
20260503045429 6 225 4.8 8.0 0.00 0.23 0.08 62 1015.2
20260503044229 6 225 4.8 9.7 0.00 0.23 0.08 63 1015.2
20260503043029 7 225 4.8 9.7 0.00 0.23 0.08 61 1015.2
20260503042429 7 225 4.8 9.7 0.00 0.23 0.08 62 1015.2
20260503041228 6 225 6.4 8.0 0.00 0.23 0.08 64 1015.4
20260503040629 6 225 6.4 9.7 0.00 0.23 0.08 65 1015.4
20260503040028 6 225 4.8 6.4 0.00 0.23 0.08 65 1015.4
20260503034828 6 225 1.6 3.2 0.00 0.23 0.08 69 1015.5